TimeCST,TemperatureF,Dew PointF,Humidity,Sea Level PressureIn,VisibilityMPH,Wind Direction,Wind SpeedMPH,Gust SpeedMPH,PrecipitationIn,Events,Conditions,WindDirDegrees,DateUTC
12:35 AM,64.8,64.0,98,29.81,4.0,Calm,Calm,-,N/A,,Clear,0,2012-12-20 06:35:00
1:35 AM,68.9,65.7,89,29.90,7.0,NW,15.0,21.9,N/A,,Clear,320,2012-12-20 07:35:00
1:55 AM,72.5,52.3,49,29.92,10.0,North,12.7,18.4,N/A,,Mostly Cloudy,350,2012-12-20 07:55:00
2:15 AM,71.8,47.3,42,29.94,7.0,North,16.1,23.0,N/A,,Overcast,350,2012-12-20 08:15:00
2:35 AM,71.6,38.3,30,29.96,7.0,North,18.4,31.1,N/A,,Overcast,360,2012-12-20 08:35:00
2:55 AM,70.3,28.9,21,29.99,5.0,North,28.8,40.3,N/A,,Haze,350,2012-12-20 08:55:00
3:15 AM,69.3,24.4,19,30.02,7.0,NNW,23.0,33.4,N/A,,Overcast,330,2012-12-20 09:15:00
3:35 AM,68.0,23.0,18,30.03,7.0,NNW,16.1,27.6,N/A,,Overcast,330,2012-12-20 09:35:00
3:55 AM,66.7,21.2,18,30.05,7.0,NNW,15.0,26.5,N/A,,Overcast,340,2012-12-20 09:55:00
4:15 AM,65.5,18.7,17,30.07,7.0,NNW,25.3,34.5,N/A,,Overcast,340,2012-12-20 10:15:00
4:35 AM,64.8,17.8,16,30.08,7.0,NNW,24.2,33.4,N/A,,Overcast,340,2012-12-20 10:35:00
4:55 AM,63.9,18.0,17,30.10,7.0,NNW,17.3,28.8,N/A,,Overcast,340,2012-12-20 10:55:00
5:15 AM,63.5,17.1,17,30.11,10.0,NNW,25.3,36.8,N/A,,Scattered Clouds,340,2012-12-20 11:15:00
5:35 AM,62.8,15.6,16,30.15,10.0,NNW,23.0,33.4,N/A,,Clear,330,2012-12-20 11:35:00
5:55 AM,61.9,15.3,16,30.17,10.0,NNW,23.0,34.5,N/A,,Clear,340,2012-12-20 11:55:00
6:15 AM,61.2,15.4,17,30.19,10.0,NNW,20.7,36.8,N/A,,Clear,340,2012-12-20 12:15:00
6:35 AM,60.3,15.6,18,30.22,10.0,NNW,25.3,35.7,N/A,,Clear,340,2012-12-20 12:35:00
6:55 AM,59.0,15.8,19,30.24,7.0,NNW,23.0,34.5,N/A,,Clear,340,2012-12-20 12:55:00
7:15 AM,58.1,15.8,19,30.26,10.0,NNW,18.4,26.5,N/A,,Clear,330,2012-12-20 13:15:00
7:35 AM,57.4,15.4,19,30.28,10.0,NNW,19.6,27.6,N/A,,Clear,330,2012-12-20 13:35:00
7:55 AM,57.2,15.8,20,30.31,10.0,NNW,12.7,27.6,N/A,,Clear,330,2012-12-20 13:55:00
8:15 AM,57.7,16.9,20,30.33,10.0,NNW,16.1,24.2,N/A,,Clear,330,2012-12-20 14:15:00
8:35 AM,56.8,17.4,21,30.35,10.0,NNW,19.6,27.6,N/A,,Clear,340,2012-12-20 14:35:00
8:55 AM,56.8,17.4,21,30.37,10.0,NNW,13.8,28.8,N/A,,Clear,330,2012-12-20 14:55:00
9:15 AM,57.2,17.1,21,30.40,10.0,NNW,18.4,34.5,N/A,,Clear,340,2012-12-20 15:15:00
9:35 AM,56.8,16.7,21,30.42,10.0,NNW,19.6,32.2,N/A,,Clear,330,2012-12-20 15:35:00
9:55 AM,57.4,16.3,20,30.44,10.0,NNW,15.0,29.9,N/A,,Clear,340,2012-12-20 15:55:00
10:15 AM,56.8,16.7,21,30.45,10.0,NNW,18.4,29.9,N/A,,Clear,330,2012-12-20 16:15:00
10:35 AM,57.7,16.3,20,30.46,10.0,NNW,18.4,31.1,N/A,,Clear,330,2012-12-20 16:35:00
10:55 AM,55.8,15.6,21,30.46,10.0,NW,16.1,27.6,N/A,,Clear,320,2012-12-20 16:55:00
11:15 AM,57.7,14.9,19,30.47,10.0,North,19.6,25.3,N/A,,Clear,350,2012-12-20 17:15:00
11:35 AM,59.0,14.0,17,30.47,10.0,North,17.3,27.6,N/A,,Clear,350,2012-12-20 17:35:00
11:55 AM,59.2,16.0,19,30.47,10.0,NNW,15.0,25.3,N/A,,Clear,330,2012-12-20 17:55:00
12:15 PM,59.7,15.4,18,30.46,10.0,NNW,20.7,26.5,N/A,,Clear,340,2012-12-20 18:15:00
12:35 PM,59.4,15.3,18,30.45,10.0,NW,18.4,24.2,N/A,,Clear,320,2012-12-20 18:35:00
12:55 PM,59.7,15.8,18,30.44,10.0,NW,13.8,25.3,N/A,,Clear,320,2012-12-20 18:55:00
1:15 PM,60.8,16.2,18,30.42,10.0,NNW,15.0,24.2,N/A,,Clear,330,2012-12-20 19:15:00
1:35 PM,59.7,15.4,18,30.42,10.0,North,18.4,32.2,N/A,,Clear,350,2012-12-20 19:35:00
1:55 PM,60.4,16.2,18,30.42,10.0,NW,19.6,25.3,N/A,,Clear,320,2012-12-20 19:55:00
2:15 PM,59.2,15.6,18,30.41,10.0,NW,18.4,25.3,N/A,,Clear,320,2012-12-20 20:15:00
2:35 PM,59.2,15.3,18,30.41,10.0,NW,16.1,26.5,N/A,,Clear,320,2012-12-20 20:35:00
2:55 PM,58.8,14.9,18,30.40,10.0,NNW,16.1,25.3,N/A,,Clear,330,2012-12-20 20:55:00
3:15 PM,58.5,14.7,18,30.41,10.0,NNW,13.8,20.7,N/A,,Clear,330,2012-12-20 21:15:00
3:35 PM,59.0,15.1,18,30.41,10.0,NW,12.7,21.9,N/A,,Clear,310,2012-12-20 21:35:00
3:55 PM,60.1,14.5,17,30.40,10.0,NNW,15.0,21.9,N/A,,Clear,330,2012-12-20 21:55:00
4:15 PM,59.0,12.9,16,30.41,10.0,NNW,13.8,23.0,N/A,,Clear,340,2012-12-20 22:15:00
4:35 PM,58.5,13.1,17,30.41,10.0,NNW,13.8,19.6,N/A,,Clear,330,2012-12-20 22:35:00
4:55 PM,58.1,13.1,17,30.41,10.0,NW,11.5,18.4,N/A,,Clear,320,2012-12-20 22:55:00
5:15 PM,57.2,13.5,18,30.41,10.0,NW,10.4,-,N/A,,Clear,310,2012-12-20 23:15:00
5:35 PM,56.7,12.9,18,30.42,10.0,WNW,6.9,-,N/A,,Clear,300,2012-12-20 23:35:00
5:55 PM,55.2,12.7,19,30.42,10.0,WNW,4.6,-,N/A,,Clear,290,2012-12-20 23:55:00
6:15 PM,54.0,12.9,20,30.42,10.0,WNW,3.5,-,N/A,,Clear,290,2012-12-21 00:15:00
6:35 PM,52.5,13.5,21,30.42,10.0,West,3.5,-,N/A,,Clear,270,2012-12-21 00:35:00
6:55 PM,51.8,14.0,22,30.44,10.0,West,4.6,-,N/A,,Clear,280,2012-12-21 00:55:00
7:15 PM,51.8,14.4,23,30.44,10.0,Calm,Calm,-,N/A,,Clear,0,2012-12-21 01:15:00
7:35 PM,51.1,15.3,24,30.44,10.0,Calm,Calm,-,N/A,,Clear,0,2012-12-21 01:35:00
7:55 PM,50.0,15.6,25,30.45,10.0,Calm,Calm,-,N/A,,Clear,0,2012-12-21 01:55:00
8:15 PM,48.9,15.6,27,30.45,10.0,Calm,Calm,-,N/A,,Clear,0,2012-12-21 02:15:00
8:35 PM,48.2,16.7,29,30.46,10.0,West,3.5,-,N/A,,Clear,280,2012-12-21 02:35:00
8:55 PM,47.5,17.6,30,30.47,10.0,WNW,3.5,-,N/A,,Clear,290,2012-12-21 02:55:00
9:15 PM,47.7,17.4,30,30.48,10.0,WNW,4.6,-,N/A,,Clear,290,2012-12-21 03:15:00
9:35 PM,46.9,17.6,31,30.48,10.0,WNW,4.6,-,N/A,,Clear,290,2012-12-21 03:35:00
9:55 PM,46.9,18.1,32,30.48,10.0,WNW,3.5,-,N/A,,Clear,300,2012-12-21 03:55:00
10:15 PM,45.9,18.1,33,30.49,10.0,WNW,4.6,-,N/A,,Clear,300,2012-12-21 04:15:00
10:35 PM,45.5,18.5,34,30.49,10.0,WNW,4.6,-,N/A,,Clear,300,2012-12-21 04:35:00
10:55 PM,45.5,18.5,34,30.50,10.0,WNW,3.5,-,N/A,,Clear,300,2012-12-21 04:55:00
11:15 PM,44.2,18.7,36,30.49,10.0,WNW,4.6,-,N/A,,Clear,300,2012-12-21 05:15:00
11:35 PM,44.1,17.6,35,30.50,10.0,WNW,4.6,-,N/A,,Clear,290,2012-12-21 05:35:00
11:55 PM,43.9,17.8,35,30.50,10.0,NW,4.6,-,N/A,,Clear,320,2012-12-21 05:55:00